Погода Каменск-Шахтинский

Погода Каменск-Шахтинский : погода сейчас, прогноз погоды и архив. Всё, что Вы хотите узнать о погоде Каменск-Шахтинский!

Хотите узнать прогноз погоды Каменск-Шахтинский? Тогда Вам сюда: Погода Каменск-Шахтинский

Поиск расширенной информации на нашем сайте:

Полезная информация: Прочистка канализации в загородном доме "Servis 24".

Другие новости

Новости СМИ2

Главная страница сайта

Новости сайта

02.10.2013

Напоминаем, что на нашем новом сайте вы можете получить высокодетализированные прогнозы погоды по пунктам России, СНГ и мира (включающие важные для авиации метеовеличины, такие как направление и скорость ветра, видимость, явления погоды, количество и форма облачности, нижняя и верхняя граница облачности), а также ознакомиться с разнообразными материалами по авиационной метеорологии и подборкой полезных ссылок на эту тему.

Сайт Метеоцентр.Азия посвящён разработке технологий оптимизации авиаметеорологического обслуживания, включая проектирование и перспективное создание нескольких автоматизированных авиаметеорологических систем:
- система выпуска высокодетальных прогностических карт явлений погоды для нижнего воздушного пространства по России и ближнему зарубежью;
- система верификации прогнозов TAF (выпускаемых синоптиками официальных АМСГ РФ и ближнего зарубежья) и AUTOTAF (выпускаемых сайтом Метеоцентр.Азия) - выявление ошибок, онлайн-сопоставление с фактической погодой METAR, автоматическое внесение коррективов в прогнозы при резком отклонении фактической погоды от прогноза, подсчёт оправдываемости прогнозов по элементам и в целом;
- система обработки, анализа и отображения авиаметеорологической информации для применения провайдерами метеорологической информации.

Рекомендуем: Дешевая недвижимость в Теплице свой уголок в Европе

Погода Каменск-Шахтинский - сегодня

Время (UTC), дата Ветер
(°,м/с) 
Видим.   Явления Облачность Т
(°С)
Тd
(°С)
f(%) Тe
(°С)
Pmin
(гПа)
dP
(гПа)
Po
(мм)
O2
(г/м3)
Тmin Tmax R s Состояние
почвы
09 26.04.17 160 (Ю) 20000 м    6/6 600 м 
[Cu hum]
+14.6 -0 37 +14  1029.7  -0.2  767  293           
12 26.04.17 170 (Ю) 4-11{11}  20000 м    3/1 600 м средняя 
[Cu hum|Ac trans]
+16.1 +1.1 36 +16  1028.6  -1.1  766  291           
15 26.04.17 150 (ЮВ) 5{11}  20000 м    ясно 
+15.2 +0.5 37 +15  1027.8  -0.8  766  292    +16.3       
18 26.04.17 180 (Ю) 20000 м    ясно 
+9.6 +1 55 +9  1028.1  0.2  766  298           
21 26.04.17 150 (ЮВ) 20000 м    ясно 
+6.9 +2 71 +7  1027.8  -0.4  765  301           
00 27.04.17 140 (ЮВ) 20000 м    ясно 
+5 +1.6 79 +5  1027.8  0.1  765  303           
03 27.04.17 140 (ЮВ) 20000 м    ясно 
+4.6 +1.4 80 +3  1028.3  0.5  766  303  +3.4        влажная 
06 27.04.17 140 (ЮВ) 8-14{14}  20000 м    ясно 
+12.9 +1.1 44 +11  1027.8  -0.2  766  294           
09 27.04.17 140 (ЮВ) 8-12{14}  20000 м    ясно 
+16.9 -0.1 32 +16  1026.9  -0.9  765  290           
12 27.04.17 120 (ЮВ) 6-11{12}  20000 м    ясно 
+20 +0.4 27 +20  1025.3  -1.5  764  287           
15 27.04.17 140 (ЮВ) 7{11}  20000 м    ясно 
+19.3 +0.9 29 +19  1024  -1.2  763  287    +20.4       
18 27.04.17 140 (ЮВ) 3{10}  20000 м    ясно 
+11.8 +3.3 56 +12  1024.9  0.7  763  294           
21 27.04.17 120 (ЮВ) 20000 м    ясно 
+9.7 +1.8 58 +9  1025.2  0.2  764  297           
00 28.04.17 150 (ЮВ) 20000 м    ясно 
+6.5 +1.6 71 +6  1024.9  -0.4  763  300           
03 28.04.17 200 (Ю) 20000 м    ясно 
+6.1 +2.1 75 +7  1024.8  0.1  763  301  +5.7        влажная 
06 28.04.17 110 (В) 20000 м    ясно 
+13.6 +3.7 51 +13  1023.7  -0.9  763  292           
09 28.04.17 110 (В) 7-11{11}  20000 м    ясно 
+18.7 +5.5 42 +19  1021.5  -2.1  761  286           
12 28.04.17 120 (ЮВ) 7-12{15}  20000 м    ясно 
+21.3 +5.5 36 +21  1020  -1.4  760  283           
15 28.04.17 110 (В) 4{12}  20000 м    1/0 средняя 
[Ac trans]
+21.4 +5.8 36 +21  1018.4  -1.5  759  283    +22.2       
18 28.04.17 090 (В) 20000 м    ясно 
+16 +7.3 56 +17  1018.9  0.3  759  288           
21 28.04.17 100 (В) 20000 м    ясно 
+13.8 +4.9 55 +14  1019.1  0.1  759  290           
00 29.04.17 140 (ЮВ) 20000 м    ясно 
+8.9 +3.7 70 +8  1019.1  0.1  759  296           
03 29.04.17 140 (ЮВ) 20000 м    ясно 
+7.3 +3.2 75 +7  1019.4  0.2  759  297  +6.9        сухая 
06 29.04.17 110 (В) 20000 м    ясно 
+13.9 +5.3 56 +14  1019.6  0.4  759  290           
09 29.04.17 150 (ЮВ) 20000 м    ясно 
+18.9 +7.5 47 +20  1019  -0.5  759  285           
Время (UTC), дата Ветер
(°,м/с) 
Видим.   Явления Облачность Т
(°С)
Тd
(°С)
f(%) Тe
(°С)
Pmin
(гПа)
dP
(гПа)
Po
(мм)
O2
(г/м3)
Тmin Tmax R s Состояние
почвы

Для получения пояснительной информации подведите курсор к названию столбца.

ПОГОДА Каменск-Шахтинский - архив

Всё, что Вы хотите узнать о погоде Каменск-Шахтинский - удобно и подробно!

Выберите нужную дату (начиная с 1 января 2015* года) и нажмите кнопку "Найти".
Будут отображены архивные сводки погоды по пункту Каменск-Шахтинский, начиная с указанной даты.


Отображать данные в формате CSV (для использования в таблицах Excel)


Внимание! Наш архив погоды предназначен исключительно для личного некоммерческого использования в познавательных целях. Если Вам необходимы официальные справки о состоянии погоды (для производственных, юридических, коммерческих и т.п. целей), обращайтесь в органы Росгидромета.

*Примечание: данная дата относится к архиву по метеостанциям СССР (Россия, СНГ, Балтия).
Архив по метеостанциям Зарубежной Европы и Азии (кроме Китая) хранится 10 дней, по другим регионам земного шара (Китай, Африка, Америка, Австралия, Океания) - 1 день.

Каменск-Шахтинский - район местоположения метеостанции


Название, широта, долгота, высота метеостанции:
Каменск-Шахтинский 48.3°ш. 40.3°д. 51 м над ур. моря [Российская Федерация]

Дополнительная информация

В oтличие oт бoльшинства пoгoдных сайтoв мы публикуем пoдрoбную метеoинфoрмацию в детальнoм прoфессиoнальнoм фoрмате.

Характеристики температуры и влажнoсти вoздуха измеряются на высoте 2 м в тени вдали oт зданий и деревьев.
Скoрoсть ветра измеряется на высoте 10 м (на урoвне рoста челoвека скoрoсть ветра ниже в 1.5-2 раза). Если метеoстанция нахoдится в гoрoде или в лесу, тo скoрoсть ветра занижена на 2-4 м/с пo сравнению с oткрытым местoм. Скoрoсть ветра над акватoриями крупных рек и oзёр, а также на вершинах хoлмoв на 2-5 м/с выше, чем в oбычных услoвиях.
Атмoсфернoе давление в разных тoчках местнoсти мoжет значительнo oтличаться oт давления на метеoстанции, в зависимoсти oт услoвий рельефа (при пoдъёме на 10 м давление пoнижается примернo на 1 мм рт.ст.).